This is the latest recevied weather packets stored in our database for station/object XE2MEM-21. If no packets are shown the sender has not sent any weather packets the latest 10 day(s).
| Time | Temp. | Humidity | Pressure | Rain* | Wind** | Luminosity | Snow |
|---|---|---|---|---|---|---|---|
| 1778139749 | 28.89° C | 100% | 1007.2 hPa | - | - | - | - |
| 1778138849 | 28.89° C | 100% | 1007.3 hPa | - | - | - | - |
| 1778137949 | 28.89° C | 100% | 1006.8 hPa | - | - | - | - |
| 1778137048 | 28.89° C | 100% | 1006.9 hPa | - | - | - | - |
| 1778136148 | 28.89° C | 100% | 1007 hPa | - | - | - | - |
| 1778135248 | 28.33° C | 100% | 1007 hPa | - | - | - | - |
| 1778134348 | 28.89° C | 100% | 1007 hPa | - | - | - | - |
| 1778133448 | 28.89° C | 100% | 1007.1 hPa | - | - | - | - |
| 1778132548 | 30° C | 100% | 1007.4 hPa | - | - | - | - |
| 1778131648 | 28.89° C | 100% | 1007.1 hPa | - | - | - | - |
| 1778130748 | 28.89° C | 100% | 1007.1 hPa | - | - | - | - |
| 1778129848 | 30° C | 100% | 1007 hPa | - | - | - | - |
| 1778128948 | 30.56° C | 100% | 1006.9 hPa | - | - | - | - |
| 1778128048 | 30° C | 100% | 1006.7 hPa | - | - | - | - |
| 1778127148 | 29.44° C | 100% | 1006.5 hPa | - | - | - | - |
| 1778126248 | 30° C | 100% | 1006.3 hPa | - | - | - | - |
| 1778125347 | 29.44° C | 100% | 1006.2 hPa | - | - | - | - |
| 1778124447 | 30.56° C | 100% | 1005.9 hPa | - | - | - | - |
| 1778123547 | 30.56° C | 100% | 1005.7 hPa | - | - | - | - |
| 1778122647 | 30.56° C | 100% | 1005.5 hPa | - | - | - | - |
| 1778121754 | 31.67° C | 100% | 1005 hPa | - | - | - | - |
| 1778120854 | 32.22° C | 100% | 1004.7 hPa | - | - | - | - |
| 1778119954 | 32.78° C | 97% | 1004.3 hPa | - | - | - | - |
| 1778119054 | 32.78° C | 97% | 1004.1 hPa | - | - | - | - |
| 1778118154 | 32.78° C | 95% | 1003.8 hPa | - | - | - | - |
* Rain since midnight (hover to see other rain measurements)
** Current wind speed in m/s (hover to see current wind gust speed)